www.pogodaiklimat.ru
ПОГОДА в Бури-Рам
Время
(UTC), дата
00 6.08
03 6.08
06 6.08
09 6.08
12 6.08
15 6.08
18 6.08
21 6.08
00 7.08
03 7.08
06 7.08
09 7.08
12 7.08
15 7.08
18 7.08
21 7.08
00 8.08
03 8.08
06 8.08
09 8.08
12 8.08
15 8.08
18 8.08
21 8.08
00 9.08
03 9.08
06 9.08
09 9.08
12 9.08
15 9.08
18 9.08
21 9.08
00 10.08
03 10.08
06 10.08
09 10.08
12 10.08
15 10.08
18 10.08
21 10.08
00 11.08
03 11.08
06 11.08
09 11.08
12 11.08
15 11.08
18 11.08
21 11.08
00 12.08
03 12.08
06 12.08
09 12.08
12 12.08
15 12.08
18 12.08
21 12.08
Ветер
(напр.,м/с)
Видим. Явления Облачность Т
(С)
Тd
(С)
f
(%)
Тe
(С)
Тes
(С)
Комфортность P
(гПа)
Po
(гПа)
Тmin
(С)
Tmax
(С)
R
(мм)
R24
(мм)
S
(см)
Ю 4 8000 м дымка 8/0
[As trans Ci fib]
+26.0 +24.4 91 +36 +37 очень
душно
1007.1 986.2 +25.1 0.1
З 5 10 км 8/3 600 м
[Cu hum Cs]
+29.8 +23.3 68 +40 +45 очень
душно
1008.6 987.9
СЗ 5 10 км 8/5 600 м
[Sc Ci fib]
+32.2 +23.1 59 +43 +48 опасность
перегрева
1006.4 986.0 0.1
СЗ 5 10 км 8/3 600 м
[Sc As trans Ci fib]
+32.3 +22.9 58 +42 +44 опасность
перегрева
1004.3 983.9
штиль 0 10 км 9/3 600 м
[Sc As trans Cs]
+29.7 +24.6 74 +42 +42 опасность
перегрева
1005.0 984.4 +32.9 0.1
штиль 0 10 км 10/5 600 м
[Sc As trans Ci fib]
+28.6 +25.5 83 +42 +42 опасность
перегрева
1007.6 986.9
СЗ 5 9000 м дымка 10/6 600 м
[Cb calv As op]
+27.1 +26.2 95 +41 +41 опасность
перегрева
1006.8 986.0
С 7 9000 м слаб. дождь 10/6 600 м
[Sc diur, vesp As op]
+24.6 +24.6 100 +34 +34 очень
душно
1005.6 984.7 0.6
ЮЗ 6 9000 м дымка {гроза, дождь} 9/6 300 м
[Sc Ac As Ci fib]
+23.8 +23.5 98 +32 +32 очень
душно
1007.5 986.4 +23.7 50 50.1
З 4 9000 м в посл. час дождь 9/5 300 м
[St Ac As]
+24.4 +23.8 96 +33 +36 очень
душно
1008.2 987.2 0.5
СЗ 4 10 км {дождь} 6/5 300 м
[Cu hum Ac As Cs]
+28.6 +23.7 75 +39 +46 очень
душно
1006.4 985.7 0.5 50.0
З 4 10 км 8/8 600 м
[Sc diur, vesp]
+28.9 +24.3 76 +40 +41 очень
душно
1004.6 983.9
З 1 10 км 3/1 600 м
[Sc diur, vesp Ci fib]
+26.8 +24.3 86 +37 +37 очень
душно
1005.3 984.5 +29.8 50.0
штиль 0 10 км 4/0
[Ac und Ci fib]
+25.9 +24.4 91 +36 +36 очень
душно
1007.5 986.6
ЮЗ 1 10 км 6/0
[Ac trans Ci fib]
+25.5 +25.3 99 +37 +37 очень
душно
1006.5 985.6 50.0
штиль 0 9000 м дымка 4/0
[Ci fib]
+25.1 +24.7 98 +35 +35 очень
душно
1005.9 985.0
Ю 3 9000 м дымка 3/0
[Ci fib]
+25.7 +24.2 91 +36 +37 очень
душно
1006.6 985.7 +23.7 0.5
ЮЗ 4 10 км 5/5 600 м
[Sc Ci fib]
+29.8 +24.0 71 +41 +47 опасность
перегрева
1008.1 987.4
СЗ 6 10 км 6/6 600 м
[Sc Ci fib]
+31.7 +23.5 62 +43 +46 опасность
перегрева
1005.8 985.3
ЮЗ 5 10 км 8/5 300 м
[Cb cap Ci fib]
+32.8 +23.4 58 +44 +45 опасность
перегрева
1003.9 983.6
Ю 6 10 км 5/4 600 м
[Sc Ci fib]
+27.8 +25.5 87 +41 +41 опасность
перегрева
1004.3 983.6 +33.3
Ю 7 10 км 8/4 600 м
[Sc Ac trans Ci fib]
+25.8 +24.6 93 +36 +36 очень
душно
1007.4 986.5
Ю 7 9000 м слаб. дождь 6/5 600 м
[Sc Ac trans Ci fib]
+25.2 +24.3 95 +35 +35 очень
душно
1006.5 985.6 0.6 0.6
штиль 0 8000 м дымка 5/3 1000 м
[Sc As op Ci fib]
+24.9 +24.0 95 +34 +34 очень
душно
1005.9 984.9
Ю 4 8000 м дымка 6/1 600 м
[Cu hum Ac und Ci fib]
+25.2 +24.2 94 +35 +36 очень
душно
1006.6 985.7 +24.7 0.6
ЮЗ 5 10 км 5/3 600 м
[Cu hum As op Ci fib]
+30.0 +23.6 69 +41 +46 опасность
перегрева
1006.8 986.2
ЮЗ 9 10 км 8/6 600 м
[Cu Sc Ac trans Ci fib]
+32.3 +24.0 62 +44 +45 опасность
перегрева
1005.3 984.9 0.6
Ю 7 10 км 5/3 600 м
[Cu hum As trans Ci fib]
+30.4 +23.6 67 +41 +43 опасность
перегрева
1003.3 982.8
Ю 3 10 км 8/1 1000 м
[Cu hum As op Ci fib]
+29.2 +24.3 75 +41 +41 опасность
перегрева
1004.3 983.7 +32.7 0.6
Ю 6 9000 м дымка 6/3 1000 м
[Sc As trans Ci fib]
+26.0 +23.5 86 +35 +35 очень
душно
1007.3 986.4
Ю 8 9000 м дымка 5/0
[As op Ci fib]
+25.7 +24.1 91 +36 +36 очень
душно
1007.2 986.2
Ю 7 9000 м дымка 4/0
[As op Ci fib]
+25.4 +24.2 93 +35 +35 очень
душно
1006.6 985.7
Ю 7 9000 м дымка 5/0
[As op Ci fib]
+26.2 +24.5 90 +37 +37 очень
душно
1008.5 987.6 +25.2
ЮЗ 6 10 км 5/4 600 м
[Sc As op Ci fib]
+29.9 +24.3 72 +42 +45 опасность
перегрева
1008.7 988.1
ЮЗ 3 10 км 8/6 600 м
[Sc Ci fib]
+31.4 +23.6 63 +42 +49 опасность
перегрева
1007.1 986.6
ЮЗ 8 10 км 5/4 600 м
[Sc Ci fib]
+33.1 +24.3 60 +45 +46 опасность
перегрева
1005.0 984.6
З 6 10 км 8/6 600 м
[Sc Ci fib]
+28.2 +23.5 76 +38 +38 очень
душно
1005.6 984.9 +33.1
Ю 6 9000 м гроза, ливневой дождь 10/6 300 м
[Cb cap Ac und]
+26.2 +24.5 90 +37 +37 очень
душно
1007.9 987.0 1
Ю 2 8000 м слаб. дождь {гроза} 10/8 600 м
[Sc As op]
+25.8 +25.1 96 +37 +37 очень
душно
1007.3 986.4 3 4.1
штиль 0 7000 м дымка {дождь} 8/4 1000 м
[Sc diur, vesp As op Ci fib]
+25.3 +24.6 96 +36 +36 очень
душно
1006.4 985.5 0.2
Ю 6 8000 м дымка 6/1 600 м
[Cu hum Ac und Ci fib]
+25.4 +24.7 96 +36 +36 очень
душно
1007.8 986.9 +25.0 2.4
ЮЗ 9 10 км 8/4 600 м
[Cu hum As op Ci fib]
+29.7 +23.1 68 +40 +41 очень
душно
1008.4 987.7
З 6 10 км 8/5 600 м
[Cu hum Ac trans Ci fib]
+31.9 +23.2 60 +42 +45 опасность
перегрева
1006.2 985.7 2.4
ЮЗ 6 10 км 6/5 600 м
[Cu hum Ci fib]
+33.0 +23.7 58 +44 +46 опасность
перегрева
1003.7 983.4
Ю 3 10 км 4/3 600 м
[Cu hum As op Ci fib]
+29.7 +25.5 78 +44 +44 опасность
перегрева
1005.7 985.1 +33.4 2.4
Ю 12 9000 м гроза без осадков 10/6 300 м
[Cb cap As op]
+26.3 +24.0 87 +36 +36 очень
душно
1008.5 987.6
Ю 4 7000 м в посл. час гроза 10/3 1000 м
[Sc diur, vesp As op]
+25.3 +24.7 96 +36 +36 очень
душно
1007.9 986.9 12 12.3
Ю 6 7000 м дымка 4/0
[As op Ci fib]
+25.3 +24.9 98 +36 +36 очень
душно
1007.2 986.2
Ю 6 7000 м дымка 4/0
[Ci fib]
+25.6 +25.0 96 +36 +37 очень
душно
1008.6 987.7 +24.9 14.9
Ю 6 10 км 5/3 600 м
[Sc As op Ci fib]
+28.9 +24.8 79 +41 +45 опасность
перегрева
1009.5 988.8
З 4 10 км 8/6 600 м
[Sc As op Ci fib]
+31.6 +24.8 67 +45 +49 опасность
перегрева
1007.1 986.6 14.9
штиль 0 7000 м гроза, ливневой дождь 10/6 300 м
[Cb cap As op]
+24.8 +24.4 98 +35 +35 очень
душно
1006.3 985.3 6
штиль 0 7000 м слаб. дождь {гроза} 10/8 600 м
[Sc As op]
+25.2 +24.8 98 +36 +36 очень
душно
1008.1 987.2 +32.8 2 22.9
штиль 0 7000 м слаб. дождь 10/8 600 м
[Sc As op]
+25.9 +25.6 98 +38 +38 очень
душно
1009.4 988.5 1
Ю 6 7000 м дымка {дождь} 10/5 600 м
[Sc As op]
+25.6 +24.0 91 +35 +35 очень
душно
1008.2 987.3 1 10.0
Ю 4 8000 м дымка 6/3 1000 м
[Sc Ac As Ci fib]
+25.0 +24.3 96 +35 +35 очень
душно
1007.2 986.3
Местоположение метеостанции Бури-Рам (Таиланд): широта 15.23 долгота 103.25 высота над уровнем моря 184 м.
В архиве по умолчанию представлена погода в Бури-Рам за последнюю неделю. Архивные данные за месяц целиком и за предыдущие месяцы, начиная с января 2011 года, Вы можете получить, выбрав интересующий диапазон дат из раскрывающегося списка и нажав кнопку "Найти!".
*Определитесь, кто Вы:
Внимание! Время в таблицах - всемирное. Для получения местного времени необходимо прибавить поправку, которая равна 7 ч.
Смотрите также архив погоды в соседних городах и на ближайших метеорологических станциях:
Партнеры нашего сайта:      
Пояснения к столбцам:
  • Ветер - указаны скорость ветра в м/с - средняя за 10 мин, порывы в срок и между сроками (в фигурных скобках) и направление, откуда дует ветер: С - северный,
  • СВ - северо-восточный, В - восточный, ЮВ - юго-восточный, Ю - южный, ЮЗ - юго-западный, З - западный, СЗ - северо-западный.
  • Видимость - горизонтальная дальность видимости в метрах или километрах. При видимости от 1 до 10 км при отсутствии осадков обычно наблюдается дымка, при ухудшении видимости до 1 км и менее - туман. В сухую погоду видимость может ухудшаться дымом, пылью или мглою.
  • Явления - указаны атмосферные явления, наблюдавшиеся в срок или в последний час перед сроком; фигурными скобками обозначены явления, наблюдавшиеся между сроками (за 1-3 часа до срока); квадратными скобками обозначены град или гололедные отложения с указанием их диаметра в мм.
  • Облачность - указаны через наклонную черту общая и нижняя облачность в баллах и высота нижней границы облаков в метрах; квадратными скобками обозначены формы облаков: Ci - перистые, Cs - перисто-слоистые, Cc - перисто-кучевые, Ac - высококучевые, As - высокослоистые, Sc - слоисто-кучевые, Ns - слоисто-дождевые, Cu - кучевые, Cb - кучево-дождевые. Подробнее классификацию облаков см. в Атласе облаков (PDF).
  • T - Температура воздуха - температура, измеренная на высоте 2 м над землей.
  • Td - Температура точки росы - температура, при понижении до которой содержащийся в воздухе водяной пар достигнет насыщения.
  • f - Относительная влажность воздуха - влажноcть воздуха, измеренная на высоте 2 м над землей.
  • Te - Эффективная температура - температура, которую ощущает одетый по сезону человек в тени. Характеристика душности погоды. При расчете учитывается влияние влажности воздуха и скорости ветра на теплоощущения человека.
  • Tes - Эффективная температура на солнце - температура, которую ощущает человек, с поправкой на солнечный нагрев. Характеристика знойности погоды. Зависит от высоты солнца над горизонтом, облачности и скорости ветра. Ночью, в пасмурную погоду, а также при ветре 12 м/с и более поправка равна нулю.
  • P - Атмосферное давление - приведенное к уровню моря атмосферное давление.
  • Po - Атмосферное давление - измеренное на уровне метеостанции атмосферное давление.
  • Tmin - Минимальная температура - минимум температуры воздуха на высоте 2 м над землей.
  • Tmax - Максимальная температура - максимум температуры воздуха на высоте 2 м над землей.
  • R - Количество осадков - Количество выпавших осадков за период времени, мм. При наведении курсора мыши на число - период времени, за который выпало указанное количество осадков.
  • R24 - Количество осадков - Количество выпавших осадков за 24 часа, мм.
  • S - Снежный покров - Высота снежного покрова, см. При наведении курсора мыши на число - состояние снежного покрова и степень покрытия местности в баллах.